User: anonymous   Login
Location: Quebec
(46.8000°N, 71.2500°W)
Time: 10:12:54
(UTC-04:00)
Language:

CZ-4B R/B - Orbit

View from above orbital plane
View from above orbital plane
View from above satellite
View from above satellite

Ground track
Ground track

The orbit data is extracted from the following two-line orbital elements,

1 29093U 06015B   15088.22901486  .00014010  00000-0  43712-3 0  9995
2 29093 097.4955 174.4430 0079866 337.1520 077.0582 15.30193929493078
Epoch (UTC): 29 March 2015 05:29:46
Eccentricity: 0.0079866
inclination: 97.4955°
perigee height: 420 km
apogee height: 530 km
right ascension of ascending node: 174.4430°
argument of perigee: 337.1520°
revolutions per day: 15.30193929
mean anomaly at epoch: 77.0582°
orbit number at epoch: 49307

The dashed part of the orbit path shows where the satellite is in the earth's shadow,  

DLR